TimeCST,TemperatureF,Dew PointF,Humidity,Sea Level PressureIn,VisibilityMPH,Wind Direction,Wind SpeedMPH,Gust SpeedMPH,PrecipitationIn,Events,Conditions,WindDirDegrees,DateUTC
12:52 AM,28.4,23.0,80,30.11,9.0,West,6.9,-,N/A,,Overcast,260,2013-01-03 06:52:00
1:33 AM,28.4,23.0,80,30.12,9.0,West,8.1,-,N/A,,Overcast,260,2013-01-03 07:33:00
1:52 AM,28.9,24.1,82,30.15,8.0,West,9.2,-,N/A,,Overcast,260,2013-01-03 07:52:00
2:44 AM,28.4,24.8,86,30.13,8.0,West,9.2,-,N/A,,Overcast,260,2013-01-03 08:44:00
2:52 AM,28.9,24.1,82,30.15,8.0,West,10.4,-,N/A,,Overcast,260,2013-01-03 08:52:00
3:17 AM,30.2,24.8,80,30.14,8.0,West,10.4,-,N/A,,Overcast,270,2013-01-03 09:17:00
3:52 AM,30.0,25.0,82,30.16,8.0,West,10.4,-,N/A,,Overcast,280,2013-01-03 09:52:00
4:07 AM,30.2,24.8,80,30.14,8.0,West,10.4,-,N/A,,Overcast,270,2013-01-03 10:07:00
4:52 AM,28.9,25.0,85,30.17,9.0,West,10.4,-,N/A,,Overcast,270,2013-01-03 10:52:00
5:52 AM,28.9,23.0,78,30.19,10.0,West,10.4,-,N/A,,Overcast,280,2013-01-03 11:52:00
6:52 AM,28.9,21.9,75,30.20,10.0,West,15.0,-,N/A,,Overcast,280,2013-01-03 12:52:00
7:52 AM,28.0,21.0,75,30.22,10.0,WNW,12.7,-,N/A,,Overcast,290,2013-01-03 13:52:00
8:42 AM,28.4,21.2,74,30.21,10.0,West,15.0,20.7,N/A,,Overcast,280,2013-01-03 14:42:00
8:52 AM,28.0,21.9,78,30.24,10.0,West,11.5,-,N/A,,Overcast,280,2013-01-03 14:52:00
9:52 AM,26.1,16.0,66,30.27,10.0,West,17.3,-,N/A,,Overcast,280,2013-01-03 15:52:00
10:52 AM,25.0,12.9,60,30.28,10.0,WNW,16.1,-,N/A,,Clear,290,2013-01-03 16:52:00
11:52 AM,24.1,12.9,62,30.28,10.0,NW,18.4,-,N/A,,Clear,310,2013-01-03 17:52:00
12:52 PM,25.0,15.1,66,30.28,10.0,WNW,11.5,-,N/A,,Mostly Cloudy,300,2013-01-03 18:52:00
1:52 PM,24.1,14.0,65,30.29,10.0,WNW,10.4,-,N/A,,Overcast,290,2013-01-03 19:52:00
2:52 PM,23.0,14.0,68,30.30,10.0,West,15.0,-,N/A,,Overcast,260,2013-01-03 20:52:00
3:52 PM,21.0,12.9,71,30.32,10.0,West,12.7,-,N/A,,Scattered Clouds,280,2013-01-03 21:52:00
4:52 PM,19.9,12.9,74,30.34,10.0,WNW,10.4,-,N/A,,Overcast,290,2013-01-03 22:52:00
5:52 PM,19.9,12.0,71,30.35,10.0,West,12.7,-,N/A,,Overcast,280,2013-01-03 23:52:00
6:52 PM,19.0,12.0,74,30.37,10.0,West,10.4,-,N/A,,Overcast,270,2013-01-04 00:52:00
7:52 PM,17.1,10.0,74,30.38,10.0,WNW,11.5,-,N/A,,Clear,290,2013-01-04 01:52:00
8:52 PM,15.1,8.1,74,30.38,10.0,West,11.5,-,N/A,,Clear,280,2013-01-04 02:52:00
9:52 PM,14.0,8.1,77,30.36,10.0,West,8.1,-,N/A,,Clear,260,2013-01-04 03:52:00
10:52 PM,14.0,7.0,74,30.36,10.0,West,8.1,-,N/A,,Clear,260,2013-01-04 04:52:00
11:52 PM,10.9,7.0,84,30.35,10.0,SW,5.8,-,N/A,,Clear,230,2013-01-04 05:52:00